Home   Weather   Prague   Past weeks
Flag for Czech Republic

Past Weather in Prague, Czech Republic — Yesterday and Last 2 Weeks

Now
81 °F

Sunny.


Feels Like: 80 °F
Forecast: 81 / 61 °F
Wind: 7 mph from North

Location: Václav Havel Airport Prague

Current Time: Jul 18, 2019 at 3:24:28 pm

Latest Report: Jul 18, 2019 at 3:00 pm


Visibility: 10 mi

Pressure: 29.89 "Hg

Humidity: 30%

Dew Point: 46 °F

Location of PragueLocation

Past Weather in Prague — Graph

°F

Prague Temperature Yesterday

Maximum temperature yesterday: 72 °F (at 3:30 pm)
Minimum temperature yesterday: 52 °F (at 4:00 am)
Average temperature yesterday: 62 °F

High & Low Weather Summary for the Past Weeks

 TemperatureHumidityPressure
High88 °F (Jul 6, 3:00 pm)100% (Jul 12, 8:00 am)30.24 "Hg (Jul 12, 8:00 am)
Low43 °F (Jul 8, 4:30 am)17% (Jul 6, 4:00 pm)29.74 "Hg (Jul 6, 5:00 pm)
Average62 °F59%29.98 "Hg
* Reported Jul 3 2:00 pm — Jul 18 2:00 pm, Prague. Weather by CustomWeather, © 2019

Note: Actual official high and low records may vary slightly from our data, if they occured in-between our weather recording intervals... More about our weather records

Advertising

Prague Weather History for the Previous 24 Hours

Scroll right to see more
 ConditionsComfort  
Time TempWeatherWind HumidityBarometerVisibility
2:00 pm
Thu, Jul 18
75 °FPassing clouds.5 mph36%29.92 "HgN/A
1:30 pm77 °FPassing clouds.7 mph34%29.92 "HgN/A
1:00 pm75 °FSunny.3 mph36%29.92 "Hg10 mi
12:30 pm75 °FSunny.5 mph39%29.92 "Hg10 mi
12:00 pm73 °FSunny.2 mph41%29.92 "Hg10 mi
11:30 am72 °FSunny.3 mph41%29.92 "Hg10 mi
11:00 am72 °FPassing clouds.3 mph41%29.92 "HgN/A
10:30 am70 °FSunny.3 mph43%29.95 "Hg10 mi
10:00 am70 °FSunny.2 mph46%29.92 "Hg10 mi
9:30 am68 °FSunny.2 mph49%29.92 "Hg10 mi
9:00 am66 °FSunny.1 mph52%29.92 "Hg10 mi
8:30 am64 °FSunny.2 mph56%29.92 "Hg10 mi
8:00 am63 °FSunny.1 mph59%29.92 "Hg10 mi
7:30 am59 °FPassing clouds.3 mph68%29.92 "HgN/A
7:00 am55 °FSunny.2 mph82%29.92 "Hg10 mi
6:30 am54 °FPassing clouds.3 mph82%29.92 "HgN/A
6:00 am50 °FSunny.3 mph88%29.92 "Hg10 mi
5:30 am52 °FSunny.2 mph82%29.92 "Hg10 mi
5:00 am50 °FClear.2 mph88%29.92 "Hg10 mi
4:00 am52 °FClear.2 mph82%29.92 "Hg10 mi
3:30 am52 °FClear.2 mph82%29.92 "Hg10 mi
3:00 am52 °FClear.3 mph88%29.92 "Hg10 mi
2:30 am52 °FClear.3 mph88%29.92 "Hg10 mi
2:00 am52 °FClear.5 mph88%29.95 "Hg10 mi
1:30 am55 °FClear.2 mph72%29.95 "Hg10 mi
1:00 am57 °FClear.1 mph67%29.95 "Hg10 mi
12:30 am57 °FClear.2 mph67%29.95 "Hg10 mi
12:00 am59 °FClear.2 mph63%29.95 "Hg10 mi
11:30 pm
Wed, Jul 17
59 °FClear.3 mph63%29.95 "Hg10 mi
11:00 pm61 °FClear.1 mph59%29.92 "Hg10 mi
10:30 pm63 °FClear.6 mph56%29.92 "Hg10 mi
10:00 pm64 °FClear.7 mph52%29.92 "Hg10 mi
9:30 pm66 °FClear.6 mph49%29.92 "Hg10 mi
9:00 pm66 °FSunny.8 mph49%29.92 "Hg10 mi
8:30 pm70 °FPassing clouds.7 mph43%29.92 "HgN/A
8:00 pm70 °FSunny.6 mph46%29.92 "Hg10 mi
7:30 pm72 °FPassing clouds.8 mph44%29.92 "HgN/A
7:00 pm72 °FPassing clouds.7 mph47%29.92 "HgN/A
6:30 pm72 °FPassing clouds.6 mph44%29.92 "HgN/A
6:00 pm72 °FPassing clouds.6 mph47%29.92 "HgN/A
5:30 pm72 °FPassing clouds.9 mph44%29.92 "HgN/A
5:00 pm72 °FPassing clouds.9 mph47%29.95 "HgN/A
4:30 pm72 °FPassing clouds.9 mph47%29.95 "HgN/A
4:00 pm72 °FPassing clouds.8 mph47%29.95 "HgN/A
3:30 pm72 °FPassing clouds.7 mph47%29.95 "HgN/A
3:00 pm70 °FScattered clouds.9 mph50%29.95 "HgN/A
Weather by CustomWeather, © 2019

See weather overview